Terminal Aerodrome Forecast
Issued by NWS Sterling, VA

Current Version | Previous Version | Graphics & Text | Print | Product List | Glossary On
Versions: 1 2 3 4 5 6 7 8 9 10 11 12 13 14 15 16 17 18 19 20 21 22
918
FTUS41 KLWX 250536
TAFDCA
TAF
KDCA 250536Z 2506/2606 18009KT P6SM SCT200
     FM251400 20009KT P6SM BKN060
     FM260200 18005KT P6SM SCT250=

USA.gov is the U.S. government's official web portal to all federal, state and local government web resources and services.